Stations météo

Publicité
Lyon/Satolas, France (7481): Température de l'air & dewpoint: 23.01.2020 18:00:00 - 29.01.2020 18:00:00 (CET)Lyon/Satolas, France (7481): Température de l'air 5cm: 23.01.2020 18:00:00 - 29.01.2020 18:00:00 (CET)Lyon/Satolas, France (7481): Température de l'air -20cm & Température de l'air -100cm: 23.01.2020 18:00:00 - 29.01.2020 18:00:00 (CET)Lyon/Satolas, France (7481): Vitesse du vent & gusts: 23.01.2020 18:00:00 - 29.01.2020 18:00:00 (CET)Lyon/Satolas, France (7481): Direction du vent: 23.01.2020 18:00:00 - 29.01.2020 18:00:00 (CET)Lyon/Satolas, France (7481): reduced air pressure: 23.01.2020 18:00:00 - 29.01.2020 18:00:00 (CET)Lyon/Satolas, France (7481): visibility: 23.01.2020 18:00:00 - 29.01.2020 18:00:00 (CET)Lyon/Satolas, France (7481): Quantités de précipitations: 23.01.2020 18:00:00 - 29.01.2020 18:00:00 (CET)
Date & Time tt [°C] td [°C] tt 5cm [°C] tt -20cm [°C] tt -100cm [°C] ff [km/h] ff [knt] fx [km/h] fx [knt] dd ppp [hPa] vv [km] rr [mm]
29.01.2020 18:00:00 8,3 5,6 6,4 7,3 7,5 5 3 11 6 SSE 1020,4 50 0,0
29.01.2020 17:00:00 9,0 5,7 8,8 7,2 7,4 7 4 23 13 SSW 1020,0 50 0,0
29.01.2020 16:00:00 9,6 5,2 8,5 7,0 7,5 4 2 17 9 SSW 1019,8 40 0,2
29.01.2020 15:00:00 9,6 5,8 9,4 6,8 7,5 8 5 18 10 S 1019,3 40 0,0
29.01.2020 14:00:00 8,8 5,7 7,8 6,5 7,4 8 5 18 10 S 1019,4 40 0,2
29.01.2020 13:00:00 8,6 5,7 8,2 6,4 7,5 14 8 22 12 W 1019,5 30 0,0
29.01.2020 12:00:00 8,5 6,3 7,5 6,1 7,4 13 7 19 10 SSE 1020,0 50 0,0
29.01.2020 11:00:00 7,1 5,2 6,0 6,1 7,4 10 6 19 10 SSE 1020,0 30 0,2
29.01.2020 10:00:00 6,7 4,9 6,0 6,0 7,4 12 6 19 10 SSW 1019,4 20 0,4
29.01.2020 09:00:00 6,4 4,7 5,5 6,0 7,4 12 6 21 11 S 1018,6 30 0,0
29.01.2020 08:00:00 6,4 4,2 5,3 6,1 7,4 10 6 16 9 S 1018,1 30 0,0
29.01.2020 07:00:00 6,4 4,2 5,4 6,1 7,4 7 4 18 10 S 1017,8 30 0,2
29.01.2020 06:00:00 7,2 3,2 5,9 6,1 7,4 12 6 19 10 SSW 1017,0 30 0,0
29.01.2020 05:00:00 7,0 3,4 5,9 6,1 7,4 11 6 17 9 SW 1016,7 12 0,0
29.01.2020 04:00:00 7,5 3,0 6,6 6,1 7,4 11 6 18 10 S 1016,6 30 0,0
29.01.2020 03:00:00 7,4 2,7 6,5 6,2 7,4 14 8 23 12 SSW 1016,5 30 0,0
29.01.2020 02:00:00 7,2 3,2 6,3 6,2 7,4 20 11 32 17 WSW 1016,1 51 0,0
29.01.2020 01:00:00 7,4 2,9 6,4 6,2 7,4 14 8 29 16 SSW 1015,5 30 0,0
29.01.2020 00:00:00 7,6 2,7 6,1 6,3 7,3 16 8 27 14 S 1014,8 30 0,0
28.01.2020 23:00:00 6,7 2,9 5,1 6,4 7,3 16 8 28 15 SSE 1014,9 30 0,0
28.01.2020 22:00:00 5,7 3,4 4,7 6,5 7,3 14 8 25 13 SSE 1015,2 30 0,0
28.01.2020 21:00:00 5,2 3,5 4,6 6,6 7,3 15 8 24 13 SE 1015,3 40 0,0
28.01.2020 20:00:00 5,1 3,3 3,9 6,8 7,3 14 8 21 11 SSE 1015,4 40 0,0
28.01.2020 19:00:00 5,6 3,6 4,8 6,9 7,3 9 5 27 14 SW 1015,0 40 0,0
28.01.2020 18:00:00 6,4 3,4 5,3 7,0 7,3 15 8 28 15 WSW 1015,0 40 0,0
28.01.2020 17:00:00 6,2 3,5 5,0 7,0 7,3 21 11 44 24 NW 1015,0 40 0,8
28.01.2020 16:00:00 7,2 3,4 6,3 7,0 7,3 12 6 32 18 WNW 1014,5 40 0,0
28.01.2020 15:00:00 6,5 3,1 5,9 7,0 7,2 22 12 39 21 NW 1014,4 40 0,0
28.01.2020 14:00:00 7,6 4,2 8,2 7,0 7,3 18 10 35 19 N 1013,7 40 0,0
28.01.2020 13:00:00 9,8 2,9 9,2 6,8 7,3 17 9 31 17 W 1013,3 40 0,0
28.01.2020 12:00:00 10,5 3,5 10,3 6,6 7,2 11 6 22 12 SSW 1013,0 40 0,0
28.01.2020 11:00:00 8,3 6,1 6,3 6,6 7,2 9 5 25 14 ESE 1012,9 40 0,0
28.01.2020 10:00:00 7,0 5,1 6,1 6,5 7,2 17 9 54 29 WNW 1012,8 8 1,8
28.01.2020 09:00:00 9,8 4,8 8,1 6,6 7,2 32 17 50 27 S 1010,1 40 0,0
28.01.2020 08:00:00 9,7 4,9 8,8 6,6 7,2 27 15 43 23 S 1009,8 40 0,0
28.01.2020 07:00:00 9,5 5,3 8,7 6,6 7,2 29 16 51 28 S 1009,4 40 0,0
28.01.2020 06:00:00 9,8 5,6 9,0 6,6 7,2 29 16 55 30 SSW 1009,6 40 0,0
28.01.2020 05:00:00 10,3 5,7 9,6 6,6 7,2 37 20 61 33 SSW 1009,0 40 0,0
28.01.2020 04:00:00 10,5 5,9 9,8 6,5 7,2 40 21 68 37 SSW 1009,3 40 0,0
28.01.2020 03:00:00 10,3 5,3 9,4 6,5 7,2 32 18 58 31 S 1009,6 40 0,0
28.01.2020 02:00:00 9,9 5,1 9,3 6,5 7,2 35 19 56 30 S 1010,1 40 0,0
28.01.2020 01:00:00 10,1 4,9 9,3 6,5 7,2 26 14 54 29 S 1010,6 40 0,0
28.01.2020 00:00:00 10,2 4,8 9,2 6,5 7,1 37 20 60 33 S 1010,8 40 0,0
27.01.2020 23:00:00 10,2 5,2 9,5 6,5 7,1 38 20 61 33 SSW 1011,4 40 0,0
27.01.2020 22:00:00 10,1 5,7 9,3 6,4 7,1 37 20 66 36 SSW 1012,2 40 0,0
27.01.2020 21:00:00 9,9 6,1 9,2 6,4 7,1 40 21 62 33 SSW 1012,3 40 0,0
27.01.2020 20:00:00 9,8 5,8 8,9 6,4 7,1 39 21 59 32 S 1012,7 40 0,0
27.01.2020 19:00:00 9,4 5,4 7,7 6,4 7,1 37 20 51 27 S 1012,8 40 0,0
27.01.2020 18:00:00 9,3 5,3 8,3 6,4 7,1 33 18 52 28 S 1013,8 30 0,0
27.01.2020 17:00:00 9,6 4,8 9,1 6,3 7,1 34 18 62 33 S 1014,0 50 0,0
27.01.2020 16:00:00 9,8 4,0 9,5 6,2 7,1 36 19 56 30 S 1013,9 50 0,0
27.01.2020 15:00:00 10,3 4,2 10,2 6,0 7,1 35 19 61 33 S 1014,1 50 0,0
27.01.2020 14:00:00 10,1 4,5 9,8 5,8 7,1 34 18 53 28 S 1015,0 35 0,0
27.01.2020 13:00:00 9,1 4,5 9,1 5,7 7,1 31 17 54 29 S 1016,4 35 0,0
27.01.2020 12:00:00 8,4 5,3 9,2 5,4 7,1 16 8 30 16 S 1017,4 25 0,0
27.01.2020 11:00:00 7,6 5,7 7,9 5,2 7,1 12 7 21 12 SE 1018,0 17 0,0
27.01.2020 10:00:00 6,2 5,2 4,9 5,2 7,0 11 6 22 12 SSE 1018,8 12 0,0
27.01.2020 09:00:00 5,4 4,5 4,8 5,2 7,1 15 8 22 12 SSE 1019,1 9 0,0
27.01.2020 08:00:00 5,4 4,7 4,0 5,2 8,9 14 8 22 12 S 1019,5 10 0,0
27.01.2020 07:00:00 4,3 4,3 1,3 5,4 9,8 13 7 21 12 SSE 1019,7 3,0 0,0
27.01.2020 06:00:00 3,3 3,2 0,8 5,5 7,7 12 7 18 10 S 1020,1 0,4 0,0
27.01.2020 05:00:00 3,2 2,6 1,1 5,7 7,7 3 2 12 6 E 1020,7 0,1 0,0
27.01.2020 04:00:00 4,4 4,3 1,9 5,9 8,3 10 5 17 9 SSE 1020,7 0,3 0,0
27.01.2020 03:00:00 4,5 4,2 3,0 6,0 7,8 11 6 16 9 SSE 1021,2 0,3 0,0
27.01.2020 02:00:00 4,8 4,2 2,6 6,2 7,8 8 5 13 7 SSE 1021,3 0,4 0,0
27.01.2020 01:00:00 5,8 5,2 2,9 6,4 7,6 10 5 16 8 SSE 1021,4 7 0,0
27.01.2020 00:00:00 6,2 5,3 4,9 6,5 7,6 13 7 17 9 SE 1021,3 9 0,0
26.01.2020 23:00:00 7,0 6,3 5,7 6,6 7,8 5 3 14 7 SE 1021,4 7 0,0
26.01.2020 22:00:00 8,1 6,7 7,1 6,6 7,7 8 5 14 7 S 1021,2 17 0,0
26.01.2020 21:00:00 8,1 7,0 7,1 6,6 7,6 0 0 8 4 N 1021,1 20 0,0
26.01.2020 20:00:00 8,4 7,2 7,4 6,6 6,9 9 5 22 12 SW 1020,8 6 1,6
26.01.2020 19:00:00 9,7 6,0 8,2 6,6 6,9 13 7 22 12 S 1020,1 16 0,0
26.01.2020 18:00:00 10,2 5,6 9,3 6,6 6,9 11 6 21 11 SSE 1019,6 50 0,0
26.01.2020 17:00:00 11,0 5,5 10,6 6,4 6,9 10 5 26 14 S 1019,3 50 0,0
26.01.2020 16:00:00 11,4 5,7 11,4 6,3 6,9 17 9 34 19 S 1019,2 45 0,0
26.01.2020 15:00:00 11,2 5,7 11,4 6,1 6,9 19 10 36 20 S 1019,1 45 0,0
26.01.2020 14:00:00 10,7 5,7 10,4 5,9 6,9 15 8 32 17 S 1019,3 40 0,0
26.01.2020 13:00:00 9,5 6,4 9,8 5,7 6,9 12 7 22 12 SE 1019,8 30 0,0
26.01.2020 12:00:00 8,7 6,3 8,3 5,5 6,9 14 7 20 11 SE 1020,4 20 0,0
26.01.2020 11:00:00 7,4 5,7 6,7 5,5 6,9 15 8 20 11 SE 1020,6 15 0,0
26.01.2020 10:00:00 6,4 4,7 5,4 5,4 6,8 14 7 19 10 SE 1020,5 12 0,0
26.01.2020 09:00:00 6,0 4,3 5,3 5,4 6,9 16 9 22 12 SE 1020,3 7 0,2
26.01.2020 08:00:00 6,0 4,0 5,5 5,4 6,8 11 6 21 11 SSE 1020,1 11 0,0
26.01.2020 07:00:00 6,4 4,1 6,0 5,5 6,8 16 8 23 13 SE 1019,9 10 0,0
26.01.2020 06:00:00 6,7 4,0 6,1 5,5 6,8 16 9 23 12 SE 1019,7 10 0,0
26.01.2020 05:00:00 6,6 4,4 6,2 5,5 6,8 15 8 21 11 SE 1019,6 10 0,0
26.01.2020 04:00:00 6,9 4,9 6,2 5,6 6,8 16 9 23 12 SE 1019,7 10 0,0
26.01.2020 03:00:00 6,9 4,9 6,0 5,6 6,8 18 10 23 12 SE 1019,9 9 0,0
26.01.2020 02:00:00 7,2 5,0 6,5 5,6 6,8 16 8 24 13 SE 1019,9 12 0,0
26.01.2020 01:00:00 8,2 5,7 7,7 5,6 6,8 18 10 26 14 SE 1020,0 12 0,0
26.01.2020 00:00:00 8,4 5,9 7,8 5,6 6,8 15 8 21 11 SE 1020,1 12 0,0
25.01.2020 23:00:00 8,3 5,8 7,4 5,6 6,9 16 9 23 13 SE 1020,2 12 0,0
25.01.2020 22:00:00 8,3 5,4 7,7 5,6 6,8 18 10 24 13 SE 1020,3 12 0,0
25.01.2020 21:00:00 8,9 5,8 8,3 5,6 6,8 15 8 26 14 SE 1020,3 20 0,0
25.01.2020 20:00:00 9,7 5,9 8,9 5,5 6,8 18 10 29 16 SE 1020,1 20 0,0
25.01.2020 19:00:00 9,4 5,8 8,6 5,5 6,8 17 9 23 13 SE 1020,0 17 0,0
25.01.2020 18:00:00 9,8 6,0 8,8 5,4 6,8 13 7 19 10 SE 1019,9 19 0,0
25.01.2020 17:00:00 11,5 6,0 10,7 5,2 6,8 14 8 24 13 S 1019,8 30 0,0
25.01.2020 16:00:00 11,6 6,1 11,7 5,0 6,9 11 6 25 13 SSE 1020,3 25 0,0
25.01.2020 15:00:00 11,7 5,6 12,4 4,5 6,8 8 5 17 9 ESE 1020,6 17 0,0
25.01.2020 14:00:00 10,5 5,3 11,1 4,1 6,9 8 4 12 7 ESE 1021,3 13 0,0
25.01.2020 13:00:00 8,4 3,8 10,2 3,7 6,9 5 3 10 5 ESE 1022,4 9 0,0
25.01.2020 12:00:00 6,1 3,6 7,9 3,4 6,8 5 3 11 6 ESE 1023,0 8 0,0
25.01.2020 11:00:00 4,2 3,0 4,5 3,3 6,9 5 3 10 5 SE 1023,5 7 0,0
25.01.2020 10:00:00 2,7 2,1 2,2 3,2 6,9 3 1 10 5 E 1023,5 5 0,0
25.01.2020 09:00:00 2,4 1,1 1,5 3,3 6,9 11 6 22 12 SSE 1023,3 4,5 0,0
25.01.2020 08:00:00 2,0 1,1 1,5 3,3 6,9 15 8 20 11 SE 1023,2 3,0 0,0
25.01.2020 07:00:00 1,9 1,6 0,5 3,3 6,9 3 2 7 4 S 1023,0 2,5 0,0
25.01.2020 06:00:00 1,7 1,3 0,4 3,3 6,9 2 1 10 5 SSE 1022,9 2,0 0,0
25.01.2020 05:00:00 1,5 1,1 0,8 3,4 6,9 3 1 10 5 SSE 1022,9 1,8 0,0
25.01.2020 04:00:00 2,4 2,0 1,0 3,4 6,9 8 5 10 6 SSE 1023,1 2,3 0,0
25.01.2020 03:00:00 2,0 1,7 0,3 3,5 6,9 4 2 6 3 SE 1023,6 1,8 0,0
25.01.2020 02:00:00 1,9 1,8 -0,2 3,6 6,9 0 0 8 4 N 1023,8 1,8 0,0
25.01.2020 01:00:00 1,4 0,8 -0,6 3,7 6,9 3 2 9 5 NNW 1024,0 1,8 0,0
25.01.2020 00:00:00 2,1 1,5 -0,6 3,8 6,9 3 2 9 5 SSW 1023,7 2,3 0,0
24.01.2020 23:00:00 2,2 0,9 0,6 4,0 6,9 3 2 15 8 NE 1023,7 3,0 0,0
24.01.2020 22:00:00 3,7 2,1 0,7 4,1 6,9 9 5 11 6 ESE 1023,5 4,0 0,0
24.01.2020 21:00:00 3,9 2,6 0,9 4,1 6,9 0 0 9 5 N 1023,6 4,5 0,0
24.01.2020 20:00:00 5,1 3,3 2,6 4,1 6,9 5 3 7 4 SW 1023,5 6 0,0
24.01.2020 19:00:00 5,6 3,4 4,1 4,2 7,0 2 1 11 6 ESE 1023,2 5 0,0
24.01.2020 18:00:00 5,7 3,0 5,1 4,1 7,0 4 2 9 5 ENE 1023,2 7 0,0
24.01.2020 17:00:00 6,1 3,4 6,1 3,9 7,0 6 4 10 5 NNE 1023,0 6 0,0
24.01.2020 16:00:00 6,5 3,1 6,9 3,6 7,0 5 3 12 7 N 1023,1 5 0,0
24.01.2020 15:00:00 7,2 3,1 8,6 3,3 7,0 7 4 19 11 ENE 1023,2 7 0,0
24.01.2020 14:00:00 6,8 3,2 8,0 2,8 7,0 6 4 14 8 E 1023,8 6 0,0
24.01.2020 13:00:00 3,2 2,6 5,6 2,5 7,0 2 1 12 6 E 1024,9 4,5 0,0
24.01.2020 12:00:00 1,3 1,3 0,1 2,3 7,0 4 2 8 4 E 1026,0 3,0 0,0
24.01.2020 11:00:00 -0,9 -0,9 -0,8 2,3 7,1 4 2 10 5 W 1026,7 0,6 0,0
24.01.2020 10:00:00 -1,5 -1,5 -1,8 2,3 7,1 5 3 9 5 WNW 1026,4 0,5 0,0
24.01.2020 09:00:00 -2,1 -2,2 -2,2 2,4 7,1 5 3 9 5 W 1026,6 0,2 0,0
24.01.2020 08:00:00 -1,9 -2,2 -2,6 2,4 7,1 2 1 9 5 W 1026,3 0,1 0,0
24.01.2020 07:00:00 -1,8 -1,9 -2,1 2,4 7,1 4 2 21 12 NE 1026,3 0,2 0,0
24.01.2020 06:00:00 -1,8 -1,9 -1,9 2,5 7,1 8 4 12 7 E 1026,2 0,1 0,0
24.01.2020 05:00:00 -1,6 -1,7 -1,6 2,5 7,1 4 2 12 7 NNE 1026,0 0,1 0,0
24.01.2020 04:00:00 -1,8 -1,9 -2,3 2,5 7,1 6 4 9 5 NW 1026,5 0,2 0,0
24.01.2020 03:00:00 -2,6 -2,7 -2,5 2,6 7,1 4 2 8 4 E 1026,8 0,1 0,0
24.01.2020 02:00:00 -2,4 -2,5 -2,3 2,6 7,1 2 1 9 5 WNW 1026,9 0,1 0,0
24.01.2020 01:00:00 -2,5 -2,6 -2,3 2,6 7,2 4 2 7 4 ENE 1027,4 0,1 0,0
24.01.2020 00:00:00 -2,1 -2,2 -1,9 2,7 7,2 2 1 5 3 W 1027,8 0,1 0,0
23.01.2020 23:00:00 -1,8 -1,9 -1,6 2,7 7,2 4 2 8 4 ESE 1027,7 0,1 0,0
23.01.2020 22:00:00 -1,4 -1,5 -1,4 2,7 7,2 4 2 9 5 ENE 1027,8 0,1 0,0
23.01.2020 21:00:00 -1,3 -1,4 -1,3 2,8 7,2 0 0 5 3 N 1027,8 0,1 0,0
23.01.2020 20:00:00 -0,9 -1,0 -0,9 2,8 7,2 4 2 16 9 S 1027,7 0,1 0,0
23.01.2020 19:00:00 -0,7 -0,8 -0,6 2,8 7,2 5 3 11 6 ESE 1027,5 0,1 0,0
23.01.2020 18:00:00 -0,5 -0,8 -0,5 2,8 7,2 2 1 9 5 SSE 1027,2 0,4 0,0

tt = Température de l'air
td = dewpoint
tt 5cm = Température de l'air 5cm
tt -20cm = Température de l'air -20cm
tt -100cm = Température de l'air -100cm
ff = Vitesse du vent
fx = gusts
dd = Direction du vent
ppp = reduced air pressure
vv = visibility
rr = Quantités de précipitations

stations d'obs. à proximité